Temperature
17 17 17 16 16 16 15 15 15 15 14 14 14 13 13 13 13 13 13 12 12 12 12 12 12 11 12 12 12 12 12 12 12 13 13 13 12 11 12 12 12 12 13
18 17 17 17 16 16 15 15 15 15 15 14 14 14 13 13 13 13 13 12 12 12 12 12 12 12 11 11 11 12 12 12 11 12 12 12 12 11 11 11 12 12 12
18 17 17 17 17 16 16 16 15 15 15 14 14 14 14 13 13 13 13 13 13 12 12 12 12 12 11 11 11 11 12 12 11 12 12 12 12 11 11 11 11 11 12
18 18 17 17 17 17 16 16 16 15 15 15 14 14 14 14 14 13 13 13 13 12 12 12 12 12 11 11 11 11 11 11 11 11 12 12 12 12 11 11 12 12 12
18 18 18 17 17 17 16 16 16 16 15 15 15 14 14 14 14 14 13 13 13 13 12 12 12 12 12 12 11 11 11 11 11 12 12 12 12 12 12 11 12 12 12
18 18 18 17 17 17 17 16 16 16 15 15 15 15 14 14 14 14 14 13 13 13 13 12 12 12 12 12 12 12 11 11 11 11 11 12 11 11 11 11 11 11 12
18 18 18 18 17 17 17 16 16 16 16 15 15 15 15 14 15 15 14 14 13 13 13 12 12 13 12 11 12 11 12 11 11 11 10 10 11 11 10 10 10 10 11
19 18 18 17 17 17 16 16 16 16 16 15 15 15 15 14 15 15 14 14 13 13 13 13 12 12 12 11 11 11 11 10 11 11 10 10 10 10 10 10 10 10 10
18 18 18 17 17 17 17 16 16 16 16 15 15 15 15 15 15 15 14 14 13 13 13 12 12 12 12 12 12 11 11 11 11 11 10 10 10 10 10 9 9 10 10
18 18 17 17 17 17 16 16 16 16 16 15 15 15 15 14 14 14 14 13 13 13 13 12 12 12 12 12 12 11 11 11 11 11 10 10 10 10 10 10 9 10 10
17 17 17 17 17 16 16 16 15 15 15 15 15 14 14 14 14 14 14 13 13 13 13 13 13 13 12 12 12 11 11 11 10 10 10 10 10 10 10 9 9 9 10
17 17 16 16 16 15 15 15 15 15 14 14 14 14 14 14 14 13 13 13 13 12 12 12 13 12 12 12 12 12 12 11 10 10 11 11 11 11 11 10 10 9 9
16 16 16 16 15 15 15 14 14 14 14 14 13 13 13 13 13 13 12 12 12 12 12 12 12 12 12 12 12 11 11 11 10 10 11 11 11 11 10 10 9 9 9
15 15 14 14 14 14 14 13 13 13 13 13 13 13 13 13 12 12 12 12 11 11 11 11 11 11 11 11 11 11 11 11 11 11 11 11 11 10 10 10 10 9 9
14 14 13 13 13 13 13 13 13 12 12 12 12 12 11 11 12 11 11 11 11 10 10 10 11 11 11 11 11 11 11 10 10 10 10 10 10 10 10 10 9 9 9
13 13 13 13 12 12 12 12 12 12 11 11 11 11 11 11 11 11 10 10 10 10 10 10 10 11 11 11 11 11 11 11 11 10 10 10 10 10 10 9 9 9 9
12 12 12 12 12 12 12 11 11 11 11 11 10 10 10 10 10 10 10 10 10 10 10 10 10 11 11 11 11 11 11 11 10 10 10 10 10 10 9 9 9 9 9
11 11 11 11 11 11 11 11 11 11 11 11 11 10 10 9 9 9 9 9 10 10 10 10 10 10 10 10 10 10 10 10 10 10 10 9 9 9 9 9 9 9 9
11 11 11 11 11 11 11 11 11 10 10 10 10 10 10 9 9 9 9 9 9 9 9 9 10 10 10 10 10 10 10 10 10 10 9 9 9 9 9 9 9 9 8
11 11 10 10 11 11 11 10 10 10 10 10 10 10 9 9 9 9 9 9 9 9 9 9 9 9 9 9 9 9 9 9 9 9 9 9 9 9 9 9 9 8 8
11 11 10 10 11 10 10 10 10 10 10 9 9 9 8 8 8 8 8 8 8 8 8 8 8 8 9 9 9 9 9 9 9 9 9 9 9 9 9 9 9 8 8
11 11 11 10 10 10 10 9 9 9 9 9 9 9 8 8 8 8 8 8 8 8 8 8 8 8 8 8 8 8 8 8 8 8 8 8 8 8 8 8 8 8 8
10 10 10 10 10 9 9 9 9 9 8 8 8 8 8 7 7 7 7 7 7 7 7 7 7 7 8 8 8 8 8 8 8 8 8 8 8 8 8 8 8 8 8
10 10 10 10 9 9 9 9 8 8 8 7 7 7 7 7 6 6 6 6 6 6 6 7 7 7 7 7 7 7 7 8 8 7 7 8 8 8 8 8 8 8 8
10 10 9 9 9 9 8 8 8 7 7 7 6 6 6 6 6 6 6 6 6 6 6 6 6 6 7 7 7 7 7 7 7 7 7 7 7 7 8 8 8 8 8
9 9 9 8 8 8 7 7 7 6 6 6 6 6 5 5 5 5 5 5 5 5 6 6 6 6 6 7 7 7 7 7 7 7 7 7 7 7 7 8 8 8 8
Wind_Speed
13 12 10 10 9 9 8 8 7 7 6 6 6 6 6 6 6 5 6 5 6 6 6 6 7 7 7 7 6 7 8 8 10 10 9 8 8 10 10 11 12 12 13
14 13 12 11 10 10 9 8 8 7 7 7 7 7 7 7 6 7 7 6 7 7 7 7 8 7 7 8 7 8 8 8 10 12 10 10 10 9 10 10 12 12 13
15 14 13 12 12 11 10 9 9 8 8 8 8 8 8 7 7 7 7 7 8 8 8 8 8 8 9 8 8 9 9 9 9 11 11 9 10 9 10 11 12 10 13
15 15 14 13 13 12 11 10 10 9 9 9 9 9 8 8 8 8 8 8 9 9 9 9 10 10 10 10 9 10 10 10 10 11 11 10 9 9 9 10 10 9 10
15 15 14 13 13 12 12 11 11 10 10 10 9 9 9 9 9 9 8 9 9 10 10 10 11 10 9 9 10 10 10 10 10 11 11 11 10 9 9 9 10 10 10
15 15 14 13 13 13 12 12 11 11 10 10 10 10 11 10 6 7 9 10 10 10 11 11 11 11 13 15 15 15 14 13 13 12 12 12 12 11 10 10 11 11 11
15 14 13 13 13 13 13 12 12 11 11 11 11 11 12 10 9 11 12 11 12 12 12 11 11 11 10 12 14 18 18 20 18 16 16 15 14 12 12 13 12 13 13
13 13 12 13 13 12 12 11 11 10 10 11 11 11 11 11 12 13 12 12 14 14 14 14 14 14 13 12 13 14 14 14 16 16 16 16 16 13 12 13 14 14 15
12 12 12 12 12 11 12 11 10 10 10 10 11 11 12 12 11 13 12 11 12 15 15 15 15 15 13 11 13 15 15 15 15 18 18 17 16 14 12 12 14 14 14
10 10 9 9 10 10 10 9 9 9 9 10 10 10 11 12 10 11 12 10 13 13 13 14 15 17 14 12 14 15 16 15 14 13 14 17 18 18 18 16 15 15 15
7 7 7 8 8 8 7 7 7 7 8 8 9 9 10 11 11 11 13 10 12 13 13 13 12 12 16 16 15 15 16 14 14 15 14 14 14 13 14 15 15 15 15
5 5 6 6 6 5 6 6 6 6 7 8 9 10 9 10 10 10 12 15 14 13 14 14 12 8 11 13 14 16 15 12 13 14 15 14 13 13 12 13 14 15 15
5 4 4 4 4 4 5 5 6 6 7 7 8 9 9 8 8 11 13 14 15 13 14 15 14 10 11 13 17 18 14 13 14 14 15 15 13 12 11 11 12 14 16
4 4 3 3 3 2 2 3 4 4 5 6 7 8 9 8 8 7 7 8 10 12 13 14 15 16 16 16 13 13 13 14 14 15 14 14 12 12 12 12 12 12 13
4 3 2 2 2 1 1 2 3 3 3 5 7 7 9 10 8 9 9 11 11 11 11 12 13 13 13 13 13 13 13 13 14 14 14 14 13 12 12 11 11 12 13
3 2 2 1 1 1 1 2 3 5 4 7 9 9 8 9 12 13 14 14 14 11 10 13 15 14 14 14 13 12 12 13 13 13 13 13 13 12 11 11 11 12 13
3 2 1 1 1 2 3 4 5 5 8 11 12 12 13 13 14 15 15 15 14 10 10 14 14 14 14 14 14 14 13 13 12 13 13 13 12 12 11 12 12 12 13
1 2 1 2 3 4 4 5 6 7 8 8 8 11 12 13 15 15 14 11 12 10 11 13 14 13 13 13 14 13 13 12 11 12 12 13 12 12 12 12 12 14 13
2 2 3 3 4 5 5 6 7 8 9 10 10 9 8 11 13 14 11 10 12 12 12 12 13 13 13 13 13 12 13 12 12 11 12 13 12 12 12 13 13 14 14
2 1 3 5 6 6 6 7 8 9 10 10 11 11 11 12 13 12 11 11 12 13 13 13 13 13 13 13 12 12 12 12 13 13 12 12 12 12 13 14 14 13 13
5 4 5 7 7 7 7 8 9 10 11 11 11 11 10 13 14 15 14 13 13 13 13 13 13 12 12 11 12 13 14 12 12 12 12 12 12 12 12 13 13 13 13
7 7 7 7 8 8 9 10 11 11 12 13 12 12 10 12 13 13 14 13 13 13 13 12 12 12 11 12 11 12 12 12 12 12 12 11 11 12 12 12 13 13 13
8 9 9 9 9 8 9 11 11 11 12 13 13 13 13 13 13 14 14 14 13 13 13 12 12 12 12 12 12 12 12 12 11 12 11 11 11 11 11 12 14 15 13
9 10 10 10 10 10 11 11 11 12 12 13 13 13 13 13 13 14 14 13 13 13 12 12 12 15 17 14 12 11 11 10 11 11 13 12 12 12 11 12 13 14 14
10 9 10 10 10 10 11 12 12 12 12 12 12 13 13 13 14 13 12 12 14 13 15 14 12 13 15 16 15 12 7 6 8 10 10 10 12 13 13 13 13 13 13
10 10 10 10 10 10 11 12 12 13 13 12 12 12 13 13 13 13 12 12 12 13 14 13 14 15 15 13 12 8 5 6 8 8 9 10 12 12 13 12 14 13 13
Wind_Direction
191 192 189 190 190 193 198 196 194 197 195 204 208 212 215 217 219 227 247 241 244 251 253 252 257 275 278 280 274 274 274 277 281 287 289 288 283 282 291 288 281 276 267
192 191 192 193 193 197 198 197 195 197 202 205 211 217 222 223 225 231 243 245 247 252 257 260 262 261 260 269 277 277 278 279 278 284 288 285 280 278 276 278 278 275 276
193 194 194 195 196 201 201 198 199 201 207 210 214 221 226 229 231 236 243 247 250 254 258 260 262 263 262 266 269 273 276 273 272 278 282 284 281 278 281 275 273 270 273
195 196 197 199 200 201 201 201 203 206 211 215 218 224 229 233 235 238 241 247 253 257 258 259 260 260 260 264 264 263 268 275 274 272 277 281 278 276 273 277 277 266 266
196 199 200 200 201 201 201 203 206 210 216 218 223 228 232 235 236 236 243 247 251 257 257 256 257 255 266 264 270 273 272 271 275 276 278 279 279 283 280 284 284 286 275
199 203 202 200 201 203 204 206 208 213 220 222 227 234 238 240 200 209 242 257 256 256 259 261 260 243 238 231 243 255 264 267 271 277 279 280 281 282 282 282 283 283 281
200 204 201 200 203 206 208 209 211 214 219 227 232 236 242 241 205 209 223 248 257 259 260 262 265 265 248 254 238 229 240 243 247 259 271 276 280 279 283 280 276 278 281
197 201 201 204 206 207 210 214 216 219 223 229 236 240 245 243 211 215 218 238 255 258 258 258 260 266 263 258 263 260 255 248 237 238 251 261 267 274 273 272 278 275 270
196 200 201 204 207 207 210 214 216 220 226 232 236 240 245 248 221 215 218 249 254 257 258 259 258 260 252 232 252 261 263 263 251 237 243 254 265 271 268 270 270 269 271
194 197 199 201 206 210 213 216 218 221 230 239 243 245 250 256 239 215 214 252 261 264 263 260 250 244 250 222 243 255 260 263 268 263 240 243 250 250 237 242 255 262 267
185 185 189 194 203 211 215 219 225 229 239 246 253 254 256 257 251 223 214 245 265 270 272 270 267 222 224 226 233 250 257 266 270 270 265 258 251 248 242 234 237 249 260
161 165 175 182 196 199 203 213 222 231 238 247 253 260 262 258 252 243 221 229 253 267 271 273 274 230 222 227 234 244 249 255 261 264 263 262 259 256 251 247 243 244 250
137 144 154 162 175 188 200 210 219 226 246 257 262 268 272 274 264 239 235 235 238 251 268 274 280 261 245 245 239 237 238 244 250 255 259 261 261 261 261 257 254 251 252
118 120 134 144 146 148 221 235 246 254 263 272 275 278 283 284 284 287 284 272 254 254 265 266 251 245 245 255 257 237 236 242 248 255 260 263 263 260 253 253 255 253 253
115 121 126 122 111 146 220 277 272 291 300 285 286 289 292 291 308 333 309 296 295 297 300 282 273 265 257 252 249 246 246 245 242 249 256 260 260 257 255 252 253 255 256
107 103 102 104 102 276 282 275 239 255 253 248 255 270 287 286 298 299 292 284 279 277 276 270 270 268 266 265 262 258 252 252 252 253 254 257 259 259 259 255 252 252 254
86 67 26 11 351 323 310 301 299 272 242 242 241 242 250 272 279 281 280 279 273 253 255 264 268 269 269 268 266 264 262 259 255 254 254 254 255 255 257 257 255 253 253
77 91 350 343 329 318 312 303 298 301 302 296 264 238 241 252 262 268 270 276 276 254 261 268 272 272 271 270 269 267 266 263 256 252 251 251 250 251 253 253 253 253 252
353 359 351 329 311 308 307 302 302 302 301 301 302 290 258 261 260 261 258 273 283 283 279 276 275 276 276 275 272 269 266 264 261 256 253 252 250 249 250 251 253 251 251
262 215 277 300 300 303 305 305 304 302 299 298 300 303 308 307 302 297 290 288 286 284 283 281 280 279 278 275 272 268 266 265 262 256 253 252 251 249 250 251 253 253 250
302 281 235 274 293 301 304 304 303 299 299 301 301 307 311 301 297 296 296 292 289 288 287 285 282 280 276 273 271 269 269 269 267 262 258 254 254 252 251 253 254 253 252
294 294 295 298 301 301 305 301 299 300 301 303 305 305 295 294 298 299 300 298 296 292 290 288 284 282 279 274 271 269 269 270 270 266 259 256 256 256 254 254 255 254 252
290 297 298 297 297 297 291 295 300 302 304 306 307 307 307 307 306 304 303 301 300 297 295 293 290 287 284 280 274 271 270 270 272 274 270 266 261 258 257 255 255 257 253
295 295 297 299 298 298 298 299 299 301 304 305 305 304 305 307 306 305 304 303 303 300 298 297 295 292 291 287 279 273 272 275 278 274 272 269 267 264 261 258 257 257 255
294 298 299 299 299 300 302 302 301 301 301 302 302 303 306 307 305 304 303 304 305 304 303 300 296 294 293 290 287 284 290 291 281 282 277 271 268 267 264 261 257 258 254
296 297 298 299 301 304 304 304 303 303 301 301 302 304 305 304 304 305 306 306 308 307 305 301 298 300 297 295 299 309 300 281 271 270 273 268 264 262 262 261 263 258 259
Height
1534 1536 1539 1541 1543 1544 1545 1547 1547 1548 1549 1550 1551 1551 1552 1552 1552 1552 1553 1552 1552 1552 1551 1550 1550 1549 1549 1549 1548 1547 1546 1545 1543 1541 1540 1538 1536 1534 1533 1532 1531 1530 1530
1531 1534 1536 1538 1540 1541 1543 1544 1545 1546 1547 1547 1548 1549 1549 1550 1550 1550 1550 1550 1550 1549 1549 1548 1547 1547 1545 1545 1544 1544 1542 1541 1539 1537 1535 1534 1532 1530 1528 1526 1527 1527 1526
1528 1531 1533 1535 1536 1538 1540 1541 1542 1543 1544 1545 1545 1546 1547 1547 1547 1547 1547 1547 1546 1546 1545 1545 1544 1543 1542 1542 1540 1539 1538 1537 1535 1533 1531 1530 1528 1527 1525 1523 1522 1520 1520
1525 1527 1529 1531 1533 1535 1536 1538 1539 1540 1541 1542 1542 1543 1544 1544 1544 1544 1544 1543 1543 1542 1541 1541 1540 1539 1538 1537 1536 1534 1534 1532 1531 1529 1527 1526 1524 1522 1521 1519 1518 1516 1515
1520 1523 1525 1527 1529 1531 1532 1534 1535 1537 1538 1538 1539 1540 1540 1540 1540 1541 1540 1540 1539 1538 1537 1536 1535 1534 1533 1532 1532 1531 1530 1528 1527 1525 1523 1522 1520 1519 1517 1515 1514 1512 1510
1515 1518 1520 1522 1524 1526 1528 1530 1531 1533 1534 1535 1535 1536 1536 1537 1537 1536 1535 1535 1534 1534 1533 1532 1531 1529 1527 1526 1525 1524 1524 1522 1522 1520 1519 1517 1515 1514 1512 1511 1509 1507 1505
1509 1513 1515 1518 1520 1522 1524 1526 1527 1528 1529 1530 1531 1531 1532 1532 1531 1531 1531 1530 1529 1528 1527 1526 1526 1525 1523 1521 1519 1517 1516 1515 1514 1514 1512 1511 1510 1509 1507 1505 1504 1502 1500
1504 1507 1510 1513 1515 1517 1519 1521 1522 1523 1524 1525 1526 1526 1526 1527 1526 1526 1525 1524 1523 1522 1521 1520 1519 1518 1517 1516 1514 1513 1511 1509 1508 1506 1504 1503 1503 1502 1500 1499 1497 1495 1493
1500 1503 1505 1508 1511 1512 1514 1516 1517 1518 1519 1520 1521 1521 1521 1521 1521 1520 1520 1518 1517 1516 1515 1514 1512 1511 1510 1509 1507 1505 1504 1503 1502 1499 1498 1496 1495 1494 1493 1492 1491 1490 1487
1496 1498 1501 1503 1505 1507 1509 1511 1512 1513 1514 1515 1515 1515 1515 1515 1515 1514 1513 1512 1511 1510 1508 1507 1505 1504 1503 1502 1500 1498 1497 1496 1495 1494 1491 1488 1487 1486 1485 1484 1483 1483 1481
1492 1495 1496 1498 1500 1502 1504 1505 1507 1508 1509 1509 1509 1509 1508 1508 1507 1507 1506 1505 1504 1503 1501 1500 1499 1497 1495 1494 1493 1491 1489 1489 1487 1486 1484 1482 1480 1478 1477 1476 1474 1474 1473
1490 1491 1493 1494 1496 1498 1499 1500 1501 1502 1503 1503 1503 1502 1502 1501 1500 1499 1498 1497 1496 1494 1492 1492 1491 1489 1487 1486 1484 1482 1482 1480 1479 1478 1477 1475 1473 1472 1470 1469 1467 1466 1464
1487 1488 1490 1491 1492 1493 1494 1495 1496 1497 1497 1497 1497 1496 1496 1495 1493 1492 1490 1488 1487 1485 1483 1482 1481 1479 1478 1476 1474 1474 1473 1471 1470 1469 1468 1466 1465 1464 1462 1461 1459 1457 1455
1484 1485 1487 1488 1489 1490 1491 1492 1492 1492 1492 1492 1491 1490 1489 1488 1487 1485 1483 1481 1479 1477 1475 1473 1471 1469 1468 1466 1465 1464 1462 1462 1461 1460 1459 1457 1456 1455 1453 1452 1451 1449 1447
1483 1484 1485 1486 1486 1487 1487 1488 1488 1487 1487 1486 1485 1484 1483 1481 1480 1477 1475 1473 1472 1470 1467 1465 1463 1462 1460 1458 1457 1456 1454 1453 1452 1450 1450 1448 1447 1446 1445 1444 1442 1441 1439
1483 1483 1484 1484 1484 1485 1485 1484 1483 1482 1481 1480 1479 1477 1475 1474 1472 1469 1468 1466 1463 1461 1459 1456 1455 1453 1451 1450 1448 1447 1446 1444 1443 1442 1441 1440 1439 1438 1437 1436 1434 1433 1431
1482 1482 1482 1482 1482 1482 1481 1481 1479 1478 1476 1474 1473 1471 1469 1467 1464 1462 1460 1457 1455 1453 1450 1448 1446 1444 1442 1441 1439 1438 1437 1436 1434 1433 1432 1431 1430 1429 1428 1427 1426 1424 1423
1481 1481 1480 1480 1480 1479 1478 1477 1476 1474 1472 1470 1468 1466 1463 1460 1458 1455 1452 1449 1446 1444 1442 1440 1438 1436 1434 1432 1431 1429 1428 1427 1425 1424 1423 1422 1422 1420 1419 1418 1417 1416 1415
1480 1480 1479 1478 1477 1476 1475 1473 1472 1470 1468 1465 1463 1461 1457 1454 1451 1448 1445 1442 1440 1437 1435 1433 1430 1428 1426 1424 1422 1420 1419 1418 1417 1416 1415 1414 1413 1412 1411 1410 1409 1408 1407
1478 1477 1476 1476 1474 1473 1471 1470 1468 1465 1463 1460 1458 1455 1452 1449 1445 1442 1439 1436 1433 1430 1427 1425 1423 1420 1418 1416 1414 1412 1411 1409 1408 1406 1406 1405 1404 1404 1402 1402 1401 1400 1399
1477 1475 1474 1473 1471 1469 1468 1466 1463 1461 1458 1455 1453 1450 1446 1443 1439 1436 1432 1429 1426 1423 1420 1417 1414 1412 1410 1407 1405 1404 1402 1401 1399 1398 1397 1396 1396 1395 1394 1393 1393 1392 1391
1474 1473 1471 1469 1468 1466 1463 1461 1459 1456 1453 1450 1447 1444 1440 1437 1433 1429 1426 1422 1419 1416 1413 1409 1406 1404 1402 1400 1398 1396 1394 1393 1392 1390 1389 1388 1387 1387 1386 1386 1385 1384 1384
1470 1469 1467 1465 1463 1461 1458 1456 1453 1450 1447 1444 1441 1437 1434 1431 1427 1423 1419 1415 1411 1408 1405 1402 1399 1396 1394 1392 1390 1388 1387 1385 1384 1383 1382 1380 1380 1379 1379 1378 1377 1377 1376
1467 1464 1462 1460 1458 1456 1453 1450 1448 1445 1442 1438 1435 1431 1428 1424 1420 1416 1412 1408 1405 1401 1398 1395 1392 1388 1386 1384 1382 1381 1379 1378 1377 1375 1374 1373 1372 1372 1372 1371 1370 1370 1369
1462 1460 1458 1455 1453 1450 1447 1445 1442 1439 1435 1432 1429 1425 1422 1418 1414 1410 1406 1402 1398 1395 1392 1388 1385 1381 1379 1377 1375 1374 1372 1370 1369 1368 1367 1366 1365 1364 1364 1364 1364 1363 1362
1457 1455 1452 1450 1447 1445 1442 1439 1436 1433 1429 1426 1423 1419 1415 1411 1407 1403 1400 1396 1392 1389 1385 1382 1378 1375 1373 1371 1369 1367 1365 1364 1362 1361 1360 1359 1358 1358 1358 1358 1357 1357 1356